Regional Weather Roundup
Issued by NWS

Home | Current Version | Previous Version | Text Only | Print | Product List | Glossary Off
Versions: 1 2 3 4 5 6 7 8 9 10 11 12 13 14 15 16 17 18 19 20 21 22 23 24 25 26 27 28 29 30 31 32 33 34 35 36 37 38 39 40 41 42 43 44 45 46 47 48 49 50

000
ASUS43 KLSX 030207
RWRMO

WEATHER SUMMARY FOR MISSOURI
NATIONAL WEATHER SERVICE SPRINGFIELD MO
900 PM CDT MON MAY 02 2016

NOTE: "FAIR" INDICATES FEW OR NO CLOUDS BELOW 12,000 FEET WITH NO
       SIGNIFICANT WEATHER AND/OR OBSTRUCTIONS TO VISIBILITY.
       CURRENT SKY AND/OR WEATHER CONDITIONS ARE NOT AVAILABLE FOR
       CHILLICOTHE AND FARMINGTON.

MOZ001>031-035>038-043-044-053-054-030300-
...NORTHERN AND WESTERN MISSOURI...

CITY           SKY/WX    TMP DP  RH WIND       PRES   REMARKS
KANSAS CTY INT PTCLDY    49  45  86 S5        30.06S
KANSAS C DTWN  CLEAR     54  46  74 SW3       30.06S
LEE`S SUMMIT   CLEAR     51  46  83 W5        30.07S
ST JOSEPH      CLEAR     53  47  79 SW5       30.06R
CHILLICOTHE      N/A     50  48  93 CALM      30.06S
KIRKSVILLE     PTCLDY    47  45  93 NW3       30.06S

$$
MOZ066>068-077>081-088>096-101>105-030300-
...SOUTHWEST MISSOURI...

CITY           SKY/WX    TMP DP  RH WIND       PRES   REMARKS
SPRINGFIELD    CLOUDY    52  45  77 N6        30.06R
JOPLIN         CLOUDY    52  48  86 CALM      30.08R
BRANSON        CLOUDY    50  46  87 CALM      30.07R

$$
MOZ032>034-039>042-045>050-055>058-069>072-030300-
...CENTRAL MISSOURI...

CITY           SKY/WX    TMP DP  RH WIND       PRES   REMARKS
COLUMBIA       CLOUDY    51  49  92 NW6       30.04S
JEFFERSON CITY CLOUDY    53  48  83 NW6       30.04S
ROLLA          CLOUDY    49  47  93 NW3       30.03R
SEDALIA        CLOUDY    51  49  92 CALM      30.06F
WARRENSBURG    CLOUDY    52  46  82 CALM      30.07R
OSAGE BEACH    CLOUDY    52  41  66 CALM      30.06R

$$
MOZ051-052-059>065-030300-
...EAST CENTRAL MISSOURI...

CITY           SKY/WX    TMP DP  RH WIND       PRES   REMARKS
ST LOUIS INTL  CLOUDY    54  49  83 NW5       30.02S
SPIRIT OF STL  CLOUDY    53  50  89 W5        30.02S
ST CHARLES     CLOUDY    53  50  89 N6        30.02R

$$
MOZ072>076-082>087-097>100-106>115-030300-
...SOUTH CENTRAL AND SOUTHEAST MISSOURI...

CITY           SKY/WX    TMP DP  RH WIND       PRES   REMARKS
CAPE GIRARDEAU CLOUDY    58  49  72 N8        30.00R
FARMINGTON     CLOUDY    54  47  77 NW9       30.02R
POPLAR BLUFF   CLOUDY    60  49  66 N9        30.00R
WEST PLAINS    CLOUDY    53  44  71 N7        30.05R

$$



USA.gov is the U.S. government's official web portal to all federal, state and local government web resources and services.